Terminal Aerodrome Forecast
Issued by NWS

Current Version | Previous Version | Graphics & Text | Print | Product List | Glossary On
Versions: 1 2 3 4 5 6 7 8 9 10 11 12 13 14 15 16 17 18 19 20 21 22 23 24 25 26
000
FTUS41 KRLX 032054 AAA
TAFCKB
TAF AMD
KCKB 032054Z 0321/0418 27004KT P6SM VCTS BKN035CB BKN100
      TEMPO 0321/0323 31015G25KT 2SM TSRA BR BKN025CB
     FM032300 31004KT P6SM SCT040 BKN080
     FM040100 VRB03KT 6SM HZ BKN080
     FM040800 00000KT 4SM BR FEW001
     FM040900 00000KT 1/4SM FG SCT001 BKN045
     FM041200 00000KT 1SM BR SCT001 BKN045
     FM041300 00000KT P6SM BKN045
     FM041600 00000KT P6SM VCTS BKN045CB=

USA.gov is the U.S. government's official web portal to all federal, state and local government web resources and services.